Regional Weather Roundup
Issued by NWS Cleveland, OH

Home | Current Version | Previous Version | Graphics & Text | Print | Product List | Glossary On
Versions: 1 2 3 4 5 6 7 8 9 10 11 12 13 14 15 16 17 18 19 20 21 22 23 24 25 26 27 28 29 30 31 32 33 34 35 36 37 38 39 40 41 42 43 44 45 46 47 48 49 50
000
ASUS41 KCLE 241502
RWRCLE
OHIO REGIONAL WEATHER ROUNDUP
NATIONAL WEATHER SERVICE CLEVELAND, OH
1100 AM EDT TUE MAY 24 2016

NOTE: "FAIR" INDICATES FEW OR NO CLOUDS BELOW 12,000 FEET WITH NO
SIGNIFICANT WEATHER AND/OR OBSTRUCTIONS TO VISIBILITY.

OHZ001>008-015>018-024>027-034-035-043-044-241600-
   NORTHWEST OHIO

CITY           SKY/WX    TMP DP  RH WIND       PRES   REMARKS
DEFIANCE       SUNNY     76  46  34 SW5       30.07F
FINDLAY        SUNNY     77  46  33 SW13      30.08S
TOLEDO EXPRESS SUNNY     75  46  35 SW10      30.07S
TOLEDO EXEC    SUNNY     75  47  36 SW10      30.07F
LIMA           SUNNY     74  49  41 W13       30.10S
$$

OHZ009>014-019>023-028>033-038-089-241600-
   NORTHEAST OHIO

CITY           SKY/WX    TMP DP  RH WIND       PRES   REMARKS
CLE-HOPKINS    SUNNY     76  47  35 W13       30.10S
CLE-LAKEFRONT  SUNNY     69  54  58 W8        30.07S
CUY CO. ARPT   SUNNY     73  48  40 NW12      30.09S
LORAIN-ELYRIA  SUNNY     74  47  38 NW10      30.09S
ASHTABULA      SUNNY     73  48  41 W8        30.08F
AKRON-CANTON   SUNNY     74  49  41 NW12      30.10S
WOOSTER        SUNNY     74  50  42 W12       30.11S
MANSFIELD      SUNNY     74  48  39 VRB6      30.11S
YOUNGSTOWN     MOSUNNY   73  50  44 NW7       30.09F
$$

OHZ042-051>053-060>062-070>072-077>081-241600-
  SOUTHWEST OHIO

CITY           SKY/WX    TMP DP  RH WIND       PRES   REMARKS
CINC-COVINGTON MOSUNNY   73  53  49 SW6       30.13S
CINC-LUNKEN    SUNNY     73  58  59 S5        30.13R
HAMILTON       SUNNY     74  55  51 W6        30.13S
DAYTON         MOSUNNY   72  51  47 VRB7      30.13S
WRIGHT-PAT AFB NOT AVBL
DAYTON GENERAL SUNNY     73  52  47 SW8       30.12S
WILMINGTON     SUNNY     72  53  51 SW10      30.13S
$$

OHZ036-037-039>041-045>050-054>059-063>069-073>076-082>088-241600-
  CENTRAL AND SOUTHEAST OHIO

CITY           SKY/WX    TMP DP  RH WIND       PRES   REMARKS
COLUMBUS       MOSUNNY   72  53  51 VRB6      30.11F
OSU AIRPORT    SUNNY     74  52  46 SW9       30.11S
BOLTON FIELD   SUNNY     73  54  49 W6        30.12F
RICKENBACK AFB NOT AVBL
NEWARK         SUNNY     75  54  47 NW6       30.11F
MARION         SUNNY     74  46  36 W7        30.10F
LANCASTER      SUNNY     74  53  48 W5        30.12F
ZANESVILLE     SUNNY     75  54  47 NW6       30.12S
NEW PHILLY     SUNNY     75  49  39 W9        30.11S
$$



USA.gov is the U.S. government's official web portal to all federal, state and local government web resources and services.